Theta_e
320 319 318 316 316 315 314 315 315 316 317 317 317 319 317 316 318 321 322 322 322 323 323 324 322 322 323 323 323 322 322 322 323 323 325 324 325 322 318 320 325 327 329 330 332 334 332 330 329 327 326 326 325 324 324 324 323 323 323 322 322 322 321 320 319 319 319 318 318 318 317 317 316 315 315 315 314 314 314 314 314 314 314 314 314
321 320 319 318 316 315 314 314 314 314 313 316 317 317 319 319 320 321 321 321 322 324 322 324 324 322 322 322 321 322 322 322 322 324 325 324 323 324 315 317 320 325 327 327 330 332 331 329 327 326 325 325 324 324 324 324 323 322 322 321 321 321 320 320 319 319 318 317 317 317 316 316 315 314 314 314 314 314 313 314 313 313 313 313 314
322 320 320 319 317 315 314 314 313 313 313 315 316 316 318 320 321 322 322 322 322 321 322 323 323 322 320 321 321 321 321 321 321 322 323 323 322 323 323 314 316 321 326 327 330 331 329 327 326 325 324 324 324 324 323 323 322 322 321 321 320 320 320 319 319 318 318 317 316 316 315 315 314 314 314 313 314 314 313 313 313 312 312 312 313
322 321 320 319 318 316 317 315 316 316 314 315 315 316 318 320 320 321 321 321 322 321 321 322 322 321 321 321 321 322 321 321 321 322 323 322 322 322 322 319 314 317 321 329 330 329 327 325 324 324 324 324 324 323 322 322 322 321 321 320 321 320 319 319 318 317 317 316 316 316 315 314 314 313 313 313 313 313 312 312 313 312 312 312 312
322 321 319 320 319 318 319 319 320 319 317 317 316 317 317 319 321 319 319 317 319 322 320 321 322 323 321 322 321 321 321 321 321 321 322 322 320 319 319 319 320 315 316 321 328 330 325 324 323 323 323 323 323 323 322 322 321 321 320 320 320 319 319 319 318 317 317 316 315 315 314 314 313 313 313 313 312 313 312 312 312 312 311 312 311
323 321 321 320 320 320 321 320 321 321 320 318 318 319 319 319 322 320 318 318 321 322 322 324 324 320 321 321 320 322 322 321 320 321 321 320 319 318 317 317 319 319 320 316 319 324 326 323 323 322 321 322 321 321 322 322 321 321 321 320 319 319 318 318 318 317 316 316 314 314 314 313 313 313 312 312 312 312 311 311 311 311 311 311 310
323 323 321 321 321 321 321 322 322 321 320 319 320 320 320 320 320 320 320 319 320 321 321 323 323 324 324 322 322 321 322 322 319 319 319 318 317 316 316 316 316 317 318 320 314 316 323 323 322 321 321 321 321 321 321 321 321 320 320 319 319 318 318 317 317 316 315 315 314 313 313 312 313 312 312 312 312 311 311 311 311 310 311 311 311
323 323 323 322 322 322 322 322 322 321 321 320 319 320 320 320 320 321 321 321 320 322 320 322 321 322 322 320 320 320 321 321 320 319 319 318 317 315 314 314 313 314 312 316 317 315 316 321 322 321 321 320 320 320 320 320 320 320 319 319 318 317 317 317 316 315 314 313 313 313 312 312 312 312 311 311 311 311 310 310 310 310 311 311 310
323 323 323 322 321 321 322 322 322 321 321 321 320 322 322 320 321 319 322 323 321 322 321 320 320 320 319 318 319 320 321 321 320 319 317 316 316 316 313 312 310 307 311 311 313 314 311 313 316 316 318 319 320 320 320 320 320 319 318 319 318 317 316 315 315 314 313 312 312 312 312 311 311 311 311 310 310 310 310 310 310 310 310 311 310
323 323 322 322 322 322 322 322 322 321 321 321 321 322 321 322 321 320 320 321 321 321 321 321 318 318 318 317 318 319 321 321 320 317 316 315 313 314 313 310 309 308 307 308 308 309 311 310 309 311 311 317 319 319 319 319 319 319 318 318 317 316 315 314 314 313 312 312 311 311 311 311 311 310 310 310 310 310 310 310 309 309 309 310 310
323 322 321 322 322 322 322 322 322 321 321 320 320 320 320 320 321 321 318 320 322 322 322 321 319 318 317 316 314 317 320 320 318 317 316 315 313 312 310 308 307 306 305 304 304 305 305 306 308 310 311 310 316 317 318 318 318 318 318 318 317 316 315 314 313 313 312 311 311 310 310 311 310 310 310 310 309 309 309 309 309 309 309 310 310
323 323 322 322 322 322 322 322 322 321 320 319 320 320 320 319 319 320 320 317 316 319 319 319 317 316 315 315 316 317 318 318 318 318 315 313 312 312 310 306 305 304 303 301 301 301 302 302 302 304 306 307 308 310 314 316 317 318 318 317 317 316 315 314 312 312 312 311 311 310 310 310 310 309 309 310 309 309 309 309 309 309 309 308 309
323 323 322 320 322 322 322 322 322 321 321 321 322 322 322 322 321 319 319 319 318 316 317 319 318 318 317 318 317 314 316 317 316 317 315 312 311 312 311 306 303 301 301 300 298 298 298 298 299 300 301 302 303 304 307 309 314 317 317 316 317 316 315 314 312 311 311 310 310 309 309 310 310 309 309 309 309 309 309 309 309 309 308 309 308
322 323 323 322 321 321 321 321 321 321 322 322 322 319 321 320 320 319 318 319 320 319 315 318 315 315 315 316 318 315 313 315 313 312 312 311 310 310 309 306 302 301 299 298 297 295 295 296 297 297 297 299 300 302 305 307 310 314 316 316 316 316 315 314 312 311 310 309 309 308 308 308 308 309 309 308 309 309 308 308 308 308 308 309 309
323 322 323 322 322 322 321 322 322 321 320 320 320 320 320 320 320 320 318 315 319 317 316 319 319 311 312 314 313 313 313 312 310 309 309 309 308 307 308 306 302 301 299 296 295 295 294 295 296 296 296 297 299 300 303 303 305 306 311 313 315 315 315 313 312 311 309 309 308 308 308 308 308 308 308 308 308 309 308 308 308 308 308 308 308
324 323 322 323 322 322 322 322 322 322 321 320 319 320 320 320 320 319 321 317 314 314 315 318 318 316 312 312 311 310 308 311 312 309 307 306 307 307 307 307 303 301 299 296 295 295 294 295 295 295 296 297 298 299 301 302 302 302 303 306 311 314 314 313 312 310 309 309 308 307 307 307 307 307 307 308 308 308 308 308 307 307 308 307 307
324 324 322 323 323 323 323 323 322 322 322 321 321 320 321 321 321 319 319 320 318 317 314 316 318 321 319 309 307 306 308 312 311 311 305 305 306 307 306 306 303 301 299 299 298 295 294 294 294 295 296 296 297 298 299 301 302 303 304 302 306 311 312 312 311 310 309 309 308 307 307 306 306 307 307 307 308 307 308 308 307 306 307 307 307
324 324 324 322 323 323 323 323 323 322 321 321 322 322 322 321 321 321 319 321 322 319 315 312 316 317 320 321 319 314 311 310 310 309 302 303 304 305 305 305 304 302 301 300 298 296 294 294 293 294 295 296 296 298 299 300 300 303 304 305 305 307 309 310 311 310 309 308 307 307 307 306 306 306 306 306 306 307 307 307 307 306 306 306 306
324 324 324 323 323 323 323 323 323 323 322 322 321 322 322 322 322 321 321 320 320 318 318 317 312 314 316 318 315 313 317 311 309 306 305 302 299 301 303 304 303 303 302 302 301 297 295 293 293 294 294 295 296 297 298 300 300 302 303 305 305 305 306 307 307 308 309 308 307 307 306 306 305 305 305 305 306 306 306 306 306 305 305 305 306
323 324 324 323 322 323 323 323 323 323 322 321 321 322 322 323 322 321 322 321 320 319 320 320 314 315 315 315 315 312 311 315 317 312 310 303 299 297 296 299 301 302 302 303 302 298 295 293 293 293 293 294 295 296 297 298 300 302 304 305 305 305 305 305 304 304 305 306 307 306 305 306 305 305 305 305 305 306 306 305 305 305 304 305 305
323 323 323 324 321 322 323 322 322 322 321 322 322 322 322 322 321 320 320 320 321 321 321 320 318 318 315 313 314 314 313 312 311 310 309 307 306 297 296 294 297 299 300 303 303 301 296 294 293 293 292 293 293 295 296 297 298 300 302 305 306 306 306 305 304 303 303 303 304 304 304 304 304 304 305 304 304 305 305 305 305 304 304 304 304
322 323 323 323 323 322 322 322 322 322 320 322 322 322 322 322 322 321 321 320 320 320 320 321 321 320 319 318 313 313 312 311 309 308 307 307 308 300 298 295 295 299 301 300 301 301 298 294 292 292 292 292 292 293 294 296 297 299 300 303 305 306 306 306 304 303 302 302 301 301 302 302 303 303 303 303 304 304 304 304 304 303 303 303 303
322 322 322 323 323 322 322 322 323 321 320 321 321 322 322 322 322 322 321 320 320 319 318 320 321 320 319 319 316 315 313 311 311 310 310 307 304 304 300 299 302 303 300 300 300 300 298 294 292 292 292 292 291 292 293 295 294 296 296 299 303 305 306 306 304 303 302 302 301 301 301 300 301 301 301 302 302 304 303 303 303 303 302 302 302
321 321 321 322 322 322 321 322 321 322 321 321 321 322 322 322 322 322 321 321 321 320 319 318 319 320 319 319 319 319 318 317 317 315 312 312 311 309 307 301 298 299 295 297 298 298 297 293 292 292 292 291 290 290 291 293 294 293 295 298 301 303 305 305 304 303 302 301 301 301 301 299 300 300 300 300 301 302 303 302 302 302 302 301 301
320 320 321 321 321 321 321 321 321 321 321 322 322 322 322 321 321 321 321 320 320 320 319 319 319 318 318 320 320 320 319 320 320 319 316 314 313 311 306 300 300 299 295 296 296 297 297 294 291 291 291 290 290 290 291 292 294 294 294 296 299 301 302 303 304 303 302 301 301 300 300 299 299 299 299 299 300 300 301 301 301 301 301 300 300
319 320 321 321 321 321 321 321 322 322 321 322 322 322 321 321 321 320 320 321 321 320 320 320 320 320 321 319 319 319 320 321 320 320 317 313 311 309 304 296 299 299 293 295 296 295 296 295 293 292 291 290 289 289 290 291 293 293 293 295 298 299 301 302 303 302 302 301 300 299 298 298 299 299 298 298 298 298 299 300 300 300 300 300 300
320 321 321 321 321 321 321 321 321 321 321 321 321 321 321 321 320 321 321 321 321 320 319 319 319 319 319 319 319 319 319 320 321 319 319 316 314 313 309 301 293 290 290 292 293 295 299 296 295 291 290 289 289 289 290 291 291 292 291 295 297 297 298 299 300 301 301 300 300 298 298 297 298 298 296 296 296 297 298 298 298 299 298 298 298
321 321 320 320 320 320 320 320 321 321 321 321 321 320 321 320 320 320 319 321 320 319 320 319 319 319 319 319 319 319 320 320 320 320 319 319 317 316 312 309 305 297 290 290 291 293 297 296 294 292 290 289 289 289 289 289 290 291 291 294 295 296 297 297 299 299 300 299 299 297 297 297 297 297 296 295 295 295 296 296 296 296 296 296 296
321 319 319 318 320 320 320 320 320 321 320 320 320 320 320 320 319 319 319 320 319 319 320 319 319 319 319 318 318 319 320 320 319 319 319 318 318 317 315 311 310 308 293 290 292 295 299 297 294 292 290 289 288 289 289 289 289 291 292 293 294 295 295 296 298 298 298 297 298 297 296 297 296 296 295 295 294 295 295 295 294 295 295 295 296
320 319 318 317 318 315 319 319 319 320 319 320 320 320 320 319 320 319 320 320 319 319 319 319 319 319 318 318 318 318 319 319 319 320 319 319 317 315 313 311 311 308 304 297 299 297 299 297 298 294 289 289 289 288 289 289 289 290 290 291 292 293 293 294 295 297 296 296 297 296 296 296 296 295 295 294 293 294 294 294 294 294 294 294 295
318 317 317 317 317 317 318 318 319 319 319 319 319 319 319 318 319 318 319 319 318 318 319 319 319 319 318 317 318 318 319 319 319 318 317 315 315 314 313 311 310 310 309 302 300 301 300 296 296 296 290 289 289 288 289 289 289 289 288 289 291 290 291 293 294 295 294 295 296 294 295 296 295 295 294 293 293 293 293 293 293 293 293 293 293
318 318 317 317 316 316 316 317 318 318 318 319 319 319 318 318 318 318 318 318 318 317 318 319 319 319 318 317 317 318 318 317 317 317 316 315 316 316 314 312 310 310 310 305 303 306 297 299 297 295 291 289 288 287 288 288 288 288 288 288 289 289 291 291 291 292 293 295 294 292 293 293 293 293 293 292 292 292 292 292 292 291 291 291 291
318 317 316 317 316 316 316 316 317 317 318 318 319 319 318 318 318 319 318 318 317 317 317 318 319 319 317 317 317 318 319 318 316 316 315 315 314 313 311 310 308 308 307 305 302 303 294 289 294 292 289 288 286 287 287 287 287 288 286 287 288 289 288 288 289 290 292 293 291 291 291 291 291 291 290 290 290 290 290 290 290 289 289 290 289
318 317 317 317 317 316 316 316 316 317 318 318 319 319 318 317 318 319 318 317 317 317 317 316 317 317 317 317 317 318 317 317 316 314 314 311 307 306 304 305 306 305 305 305 305 305 304 288 289 289 287 288 286 287 287 286 286 286 285 285 286 286 285 285 286 288 290 291 290 290 291 290 290 289 289 288 288 288 288 289 288 288 288 288 288
317 317 317 317 316 316 316 316 316 316 317 318 318 318 318 318 317 318 319 318 317 316 316 316 317 317 316 315 316 316 316 315 314 312 306 306 305 305 305 305 305 305 303 305 305 303 303 292 289 287 286 286 287 286 287 287 286 286 285 284 284 283 284 284 284 286 288 290 290 290 290 289 289 288 288 287 287 287 287 287 287 287 287 287 287
315 316 317 317 316 316 315 315 316 316 316 317 317 318 319 318 318 318 318 318 318 318 317 317 317 316 315 314 314 313 309 309 306 306 305 306 305 305 305 302 303 303 302 301 304 306 304 294 286 287 286 285 285 285 285 285 284 284 283 283 283 283 283 283 283 284 286 290 289 288 288 288 287 287 287 286 286 286 286 286 286 286 285 286 286
316 314 314 315 315 315 316 316 316 316 316 317 318 318 318 318 318 318 318 318 318 317 317 317 310 316 314 313 314 312 309 309 304 302 300 300 300 300 301 301 300 302 301 299 299 299 296 296 288 286 285 285 285 285 284 283 282 282 282 282 282 282 282 283 283 283 284 288 289 287 286 286 286 286 286 285 285 285 285 285 284 284 284 284 285
315 314 314 314 315 315 315 316 316 316 316 317 317 317 317 317 318 318 318 317 317 317 317 317 316 314 314 314 314 311 307 307 304 301 299 300 299 298 299 299 299 300 300 298 298 296 296 294 287 283 284 284 283 283 284 283 281 280 281 281 281 281 281 281 281 281 282 282 283 283 283 283 284 284 285 284 284 284 284 283 283 283 283 284 285
315 313 312 313 312 314 315 316 316 316 316 316 316 316 317 317 317 316 316 316 315 315 314 314 314 313 313 313 312 308 306 306 305 301 298 298 298 298 299 300 300 299 298 298 298 297 295 291 287 285 284 285 284 282 282 283 282 282 281 280 280 281 280 281 280 280 281 281 282 282 281 281 281 282 282 283 282 282 282 282 281 282 282 283 285
312 313 312 312 313 312 314 314 315 315 315 315 315 316 316 316 316 315 315 313 313 312 311 311 311 311 311 310 309 306 306 305 305 302 300 299 298 298 298 298 296 295 297 297 293 292 290 289 287 285 284 283 283 282 281 281 281 281 282 282 281 281 280 280 281 280 280 279 279 280 281 281 281 281 282 282 280 281 280 280 279 280 281 283 285
308 310 311 311 311 310 311 313 313 313 314 314 315 314 314 314 314 314 314 313 312 310 308 305 304 304 304 305 303 303 302 298 298 299 298 298 300 298 297 296 295 295 294 293 290 289 288 288 285 284 283 282 282 281 280 281 281 282 282 282 283 283 282 280 280 280 280 279 279 279 277 277 277 277 277 277 278 279 278 278 279 279 281 283 284
305 305 306 307 308 309 309 310 311 311 312 313 305 303 305 313 313 313 313 311 309 308 305 302 300 299 300 300 300 294 294 293 293 294 294 294 295 300 300 297 294 293 291 290 289 288 288 287 286 284 283 282 282 282 281 281 283 284 282 281 282 282 281 280 281 279 279 278 278 277 278 277 277 277 276 276 277 278 278 279 278 279 281 283 284
300 300 302 304 305 306 308 308 308 308 309 309 301 303 303 304 310 312 311 310 307 303 302 302 301 298 297 297 296 293 291 290 291 292 294 293 293 293 293 293 293 295 290 289 289 288 288 288 287 285 285 285 284 283 283 283 283 283 283 282 283 281 280 279 280 280 277 277 277 277 278 276 276 276 276 277 277 277 277 278 278 279 281 283 283
296 295 297 301 303 303 305 305 306 307 307 300 301 302 302 302 302 308 309 309 306 303 300 300 300 299 297 295 293 293 293 294 295 294 292 292 292 292 292 291 291 292 293 292 289 288 288 288 287 286 286 286 285 283 283 283 282 283 283 282 282 282 281 281 283 284 279 277 277 276 277 274 274 275 276 276 277 277 277 277 279 280 282 282 283
294 295 298 298 299 299 301 302 302 302 302 300 300 300 301 301 301 303 306 306 302 300 299 299 299 297 295 294 292 291 292 289 290 292 292 291 290 290 290 290 290 291 293 293 292 292 290 289 288 287 286 287 285 284 284 284 284 282 282 282 282 282 283 282 284 280 273 276 277 277 278 276 274 276 276 277 276 276 276 278 279 280 281 282 282
295 295 295 296 296 297 298 299 299 299 300 298 299 299 299 299 300 300 305 302 299 299 298 297 297 296 295 294 293 292 291 290 290 291 291 292 292 291 291 291 291 290 290 291 290 289 290 291 290 289 289 289 287 286 285 285 283 282 282 282 282 282 282 283 280 277 276 276 277 278 278 275 274 275 275 277 276 275 275 276 278 280 281 281 281
295 295 295 294 295 295 296 296 298 298 299 297 297 298 298 298 299 299 302 300 298 297 296 296 296 296 295 295 295 295 291 290 290 291 291 291 291 289 288 289 290 290 290 290 290 289 287 289 290 291 290 288 288 285 285 286 285 284 284 283 283 283 279 275 275 275 275 275 275 276 280 276 272 274 275 275 275 275 275 276 278 279 281 281 280
293 293 293 293 294 293 293 294 295 297 297 295 295 296 297 298 298 299 297 296 295 294 293 293 293 293 292 292 293 292 291 291 289 290 291 291 288 287 287 287 286 286 286 286 288 287 286 286 286 286 285 285 285 285 285 285 285 282 281 280 279 277 278 279 278 273 273 275 274 275 278 276 272 274 276 275 275 275 275 274 275 278 280 280 280
293 293 294 293 293 293 292 292 294 296 296 294 293 295 296 297 297 296 294 294 293 293 292 292 292 291 291 291 292 292 291 291 289 291 291 289 288 287 287 286 285 285 284 285 288 288 287 287 287 287 287 288 288 288 287 287 284 282 281 280 278 279 279 279 277 274 275 273 273 274 276 277 273 272 274 275 274 274 273 273 273 277 280 279 278
293 293 293 292 292 292 293 293 293 295 295 292 292 294 295 296 295 294 293 293 291 291 290 290 290 290 290 288 289 292 292 291 289 291 291 289 288 287 287 286 284 284 283 283 285 286 288 288 288 288 289 289 289 290 289 288 286 284 283 282 280 280 281 282 281 277 274 270 273 275 275 277 271 272 274 275 272 272 272 272 273 274 277 276 276
292 291 291 292 292 291 291 292 289 292 293 291 291 293 294 295 293 293 293 293 291 290 289 288 288 289 289 288 287 290 291 290 291 292 291 289 288 287 287 286 285 285 285 283 283 283 283 283 284 285 285 286 287 287 287 287 286 285 285 285 281 282 282 281 278 274 276 277 273 274 275 274 272 272 273 276 277 274 271 271 273 273 273 272 273
Wind_Speed
6 6 5 5 5 5 5 5 5 5 5 5 5 5 4 3 1 2 1 1 1 2 1 0 0 0 1 0 0 1 1 1 1 0 0 0 1 3 7 9 7 9 9 7 6 10 10 12 12 11 10 11 11 11 11 11 11 11 11 11 12 12 12 12 12 12 13 13 13 13 14 14 14 14 14 14 15 15 15 16 17 17 18 18 18
7 6 7 7 7 6 6 6 5 4 5 5 5 5 4 1 2 2 2 1 2 1 1 2 1 1 1 0 0 1 1 2 2 2 1 0 1 2 6 6 7 7 7 6 2 10 11 11 10 9 9 10 10 10 11 11 11 11 11 11 11 11 11 11 12 12 12 13 13 13 13 13 13 13 13 14 14 14 14 15 16 17 17 17 18
7 7 7 7 7 6 6 4 4 4 4 3 2 4 2 3 3 3 2 1 2 1 1 2 2 1 0 1 1 1 1 1 1 2 2 1 0 0 2 4 6 6 5 4 3 9 9 8 8 8 9 9 9 9 10 10 10 10 10 11 10 11 11 11 11 12 12 12 12 13 13 13 13 13 13 13 14 14 15 15 16 17 17 17 18
8 7 7 7 7 7 6 5 4 3 4 4 4 3 3 2 2 1 1 1 1 1 0 1 1 1 0 1 1 1 1 1 2 2 3 3 1 0 1 2 3 6 6 3 6 9 7 8 8 9 9 9 9 9 9 9 9 9 9 10 10 10 11 11 11 11 12 12 12 12 12 12 12 12 12 13 13 13 13 15 15 16 16 17 18
8 9 7 7 7 6 5 5 3 3 4 6 5 3 2 2 2 1 1 1 1 1 1 1 2 0 1 1 1 2 2 3 3 4 3 2 1 1 1 1 1 5 9 7 5 6 8 10 9 9 8 7 8 8 8 8 9 9 9 9 9 10 10 10 10 11 11 11 11 11 11 11 11 11 12 12 13 13 13 14 15 16 16 17 17
8 8 7 7 6 6 6 4 4 4 4 4 4 4 3 2 2 1 2 2 2 2 1 2 2 1 2 1 1 2 3 4 3 3 2 3 2 1 1 1 1 2 3 9 10 7 8 9 8 7 7 6 6 7 7 7 8 9 9 9 9 9 10 10 10 11 11 11 11 10 11 10 10 11 11 11 12 12 13 14 14 15 16 17 17
8 8 8 7 7 6 7 5 4 4 4 5 5 4 3 3 2 3 2 2 2 2 2 2 2 3 2 1 1 2 3 4 4 4 3 3 3 1 1 2 1 2 2 3 7 10 8 7 8 7 7 6 5 6 7 7 8 9 9 8 9 9 9 10 10 11 10 10 10 10 10 10 10 10 11 11 11 12 12 13 14 14 15 16 17
9 9 8 7 7 8 6 4 5 4 4 5 4 5 4 3 3 3 3 4 2 3 2 3 2 3 2 1 2 3 3 4 4 5 3 4 4 3 2 3 2 2 3 3 3 6 9 8 8 7 7 6 6 6 7 7 8 8 8 8 8 9 9 9 9 10 10 9 9 9 9 9 9 10 10 10 11 11 12 13 13 14 15 16 17
10 9 9 9 9 8 5 6 4 4 4 5 6 5 4 3 3 3 4 4 3 4 3 2 3 3 2 2 3 3 4 4 5 3 3 3 3 4 4 3 4 5 2 3 3 3 7 8 8 9 7 3 7 6 6 8 8 8 8 8 8 8 8 9 9 9 9 9 8 8 8 8 9 9 9 10 10 11 11 12 13 13 14 15 16
11 10 9 7 6 6 6 6 5 4 4 6 5 5 5 4 4 4 4 4 4 4 5 3 2 3 2 2 2 3 3 4 4 5 5 3 2 2 2 3 4 4 3 2 3 3 3 6 8 10 10 6 5 5 6 7 7 7 8 8 8 8 8 9 8 8 8 8 7 7 7 7 8 8 8 9 9 10 11 12 13 13 14 15 15
11 10 9 8 9 8 7 6 5 5 5 6 7 6 5 6 6 4 3 5 5 5 4 3 3 2 2 1 1 3 3 2 3 3 3 5 5 4 2 1 1 4 4 3 2 3 3 2 2 3 4 8 4 3 5 5 5 7 8 9 9 8 9 9 8 7 7 7 7 7 6 6 7 7 8 8 9 10 10 12 13 14 14 14 15
10 10 10 9 9 9 9 7 6 6 8 8 7 7 8 8 8 8 7 5 4 4 3 3 1 1 1 1 0 1 3 4 5 5 4 4 4 4 4 2 1 1 4 3 2 2 3 2 2 2 2 3 6 8 5 2 3 8 9 9 9 8 9 9 8 7 6 6 6 6 5 6 6 7 7 8 9 10 10 11 12 13 15 15 15
10 11 11 9 10 9 9 9 8 8 9 9 7 7 6 6 6 7 9 8 7 4 4 2 2 2 1 1 1 1 2 4 4 5 5 4 3 4 3 3 3 0 2 3 3 3 3 3 2 2 2 2 2 4 5 4 2 8 7 8 8 8 8 8 8 7 6 5 5 5 5 5 6 6 7 7 8 9 10 11 12 13 14 15 16
9 12 11 12 11 10 10 11 10 10 9 8 7 7 7 8 7 6 7 9 7 5 5 5 2 6 5 2 2 1 1 3 4 4 4 4 4 4 4 4 4 3 1 3 3 3 3 3 3 3 2 2 2 1 0 1 3 0 6 6 7 8 8 8 8 7 6 5 4 4 4 4 5 5 6 6 7 8 9 11 12 13 14 15 16
11 10 12 13 12 10 11 8 10 9 9 9 9 10 10 11 10 10 6 4 6 2 7 8 5 3 1 1 4 4 3 2 2 4 4 4 4 4 4 4 4 4 3 2 3 3 3 3 3 3 3 3 2 2 1 0 1 5 2 3 7 8 8 8 8 7 6 5 4 3 3 3 4 5 5 6 7 8 9 10 12 13 14 15 15
11 11 9 10 11 10 8 9 10 9 10 11 11 11 10 10 9 10 7 6 6 7 7 7 5 6 3 6 3 2 7 7 5 3 3 3 5 5 5 5 6 5 3 4 4 4 3 3 4 4 4 4 3 2 2 2 1 1 2 3 1 7 8 8 8 7 6 5 4 2 2 3 3 4 5 6 7 8 9 10 11 12 14 15 16
11 13 11 12 11 10 9 10 9 10 9 11 11 11 10 9 11 10 12 11 10 6 6 8 8 9 5 4 1 3 7 2 2 2 3 4 5 6 6 7 7 6 5 4 2 3 3 4 4 4 5 5 4 3 3 3 3 2 1 0 1 4 7 7 7 7 6 5 4 3 2 2 3 4 5 6 7 8 9 10 10 12 12 13 14
11 12 13 11 12 12 12 10 10 10 11 12 9 8 8 9 11 10 12 11 9 6 7 7 9 9 10 10 5 5 4 3 2 4 1 2 3 6 7 8 6 7 5 5 6 5 5 5 5 5 5 5 5 4 4 4 3 3 3 4 5 5 5 7 7 7 6 5 4 3 2 1 2 3 5 6 7 8 8 9 11 11 12 13 14
12 13 12 14 12 11 11 11 10 10 9 10 12 11 9 9 8 11 10 9 10 11 10 8 5 8 9 8 4 4 3 5 6 2 3 2 3 4 5 6 7 7 7 8 8 6 6 6 7 6 5 5 5 5 4 4 5 4 6 7 8 7 6 6 6 6 5 5 4 3 2 1 1 3 4 5 7 7 8 9 9 11 12 13 14
12 12 12 12 11 10 10 10 11 10 10 12 13 9 8 9 9 11 9 8 11 13 12 8 10 8 10 11 10 4 3 8 8 8 7 5 4 1 0 3 4 6 6 8 9 9 8 7 6 5 5 6 5 5 5 5 4 5 6 10 10 10 10 9 7 6 5 4 4 4 2 2 2 3 3 5 6 7 7 8 9 10 11 12 13
11 11 11 12 12 11 11 11 11 11 11 10 9 11 13 12 12 11 12 12 11 11 10 9 11 10 7 10 10 9 7 6 5 3 8 8 8 6 5 1 3 6 8 9 8 7 7 7 6 6 6 6 6 6 6 5 5 4 5 11 11 11 11 10 9 8 6 6 5 4 3 1 1 3 3 4 5 6 7 8 9 10 11 12 12
12 11 11 12 12 13 12 12 12 11 11 11 11 12 13 13 13 12 13 14 11 11 13 10 9 8 8 7 10 9 8 7 7 7 6 7 9 6 6 10 6 10 9 10 11 10 8 7 7 7 6 6 6 6 5 6 5 4 6 9 12 12 12 11 11 9 9 7 6 4 2 1 2 2 3 4 5 6 7 8 8 9 10 11 12
9 11 12 12 12 12 12 11 11 11 12 12 11 11 11 12 12 12 12 14 12 14 12 11 10 10 11 9 11 12 11 12 10 9 10 8 6 7 5 9 14 10 9 10 8 8 7 7 7 7 6 6 6 5 6 6 7 7 9 7 11 12 12 12 11 11 9 8 7 5 3 2 1 2 2 3 5 6 6 7 8 9 9 10 12
10 10 12 12 12 11 13 12 11 11 11 10 10 10 10 11 11 11 12 13 11 11 13 13 14 10 12 10 11 10 10 10 8 10 10 9 11 11 9 6 5 6 2 3 2 5 6 7 7 6 7 6 5 4 6 7 7 13 9 11 11 13 13 12 12 11 10 8 7 5 4 2 1 2 2 3 4 5 6 7 7 8 9 10 11
11 12 12 14 11 10 11 13 14 12 12 11 13 13 12 11 11 12 12 13 12 14 13 15 14 14 14 12 12 12 12 9 8 8 9 8 8 11 4 6 8 5 3 4 5 5 5 6 7 7 7 6 4 6 6 6 6 11 12 9 13 12 12 13 12 12 10 9 7 5 4 2 1 1 2 3 3 5 6 7 7 8 9 10 11
11 13 11 12 12 12 11 11 11 11 12 13 12 12 12 11 11 13 14 11 11 15 16 15 13 15 10 11 12 14 12 9 9 9 9 9 9 9 7 4 4 2 2 3 2 3 6 8 8 8 6 5 6 7 7 7 7 12 13 9 11 12 11 11 12 11 10 9 8 5 4 3 2 2 2 1 2 4 6 7 7 8 9 10 11
11 10 10 11 12 11 12 13 12 12 12 12 11 11 12 11 11 13 12 11 12 12 14 15 15 16 15 14 12 12 13 10 8 10 10 11 11 11 9 9 3 2 3 1 2 8 4 4 9 8 7 7 8 8 7 7 10 14 13 8 7 11 11 12 11 11 10 9 7 5 4 3 3 3 2 0 2 4 5 6 7 8 9 10 11
8 9 9 10 11 12 12 13 12 12 12 12 12 11 12 12 11 11 13 9 11 14 13 13 16 16 14 12 11 13 11 10 10 10 10 10 10 10 9 10 10 8 4 4 5 9 8 6 5 9 8 9 8 8 10 10 8 13 12 6 7 8 11 12 12 11 9 7 6 5 4 4 4 3 2 1 1 3 5 6 7 8 9 10 11
8 9 10 10 11 11 11 12 11 11 11 12 12 12 12 12 12 13 13 12 11 15 13 12 12 12 11 13 11 11 10 10 10 10 10 10 10 10 11 12 11 11 7 8 9 10 9 12 7 9 11 8 9 8 9 8 9 11 7 6 7 6 10 13 12 10 8 7 7 6 6 6 5 4 3 1 1 3 4 5 7 8 8 10 11
10 8 8 10 11 11 11 11 10 9 11 10 11 12 12 11 12 12 12 11 12 10 11 12 11 10 11 11 11 11 10 9 10 12 11 12 12 10 7 7 8 10 6 9 11 10 7 7 10 5 9 11 8 8 8 8 9 12 7 7 7 6 8 11 10 9 8 8 7 6 6 6 6 4 3 1 1 2 4 5 6 7 9 10 11
9 9 10 10 10 10 11 11 10 10 10 10 12 11 12 12 12 12 12 11 11 11 11 11 11 10 11 11 12 11 11 12 12 11 10 9 8 8 9 9 9 12 12 8 9 7 9 7 10 7 9 12 9 7 6 6 9 11 7 6 6 7 8 7 8 8 9 9 8 7 7 7 5 5 3 2 1 2 3 5 6 7 8 10 11
10 10 10 11 11 11 11 11 11 11 11 12 11 11 11 11 11 10 11 11 12 12 12 11 10 11 11 12 11 11 10 9 10 11 11 10 11 11 12 10 10 11 11 10 13 13 7 8 7 8 9 10 9 9 8 6 6 11 5 5 6 8 6 4 6 8 9 9 7 6 6 5 5 4 3 1 1 2 3 5 6 7 8 9 10
10 10 11 12 12 12 12 11 12 12 12 11 10 11 11 12 11 12 12 12 13 12 11 12 12 12 12 13 13 14 13 12 10 10 10 11 11 10 9 9 11 11 11 12 12 13 1 1 2 7 6 9 8 8 9 8 8 7 4 4 6 5 4 3 3 4 7 8 7 6 7 6 5 3 2 0 1 2 3 4 5 6 7 8 9
11 12 12 11 11 11 11 12 12 12 11 11 12 11 11 12 12 11 12 13 13 13 12 12 11 10 11 12 14 13 11 12 11 11 11 10 8 7 7 9 10 10 12 11 12 12 11 3 3 2 6 9 6 9 11 12 9 7 7 5 3 3 3 2 3 3 6 8 8 8 8 7 6 4 3 1 1 1 2 3 4 5 6 7 8
10 11 11 11 11 11 11 12 12 12 11 12 11 12 12 12 12 12 12 12 13 13 12 12 12 12 12 12 12 12 11 11 12 10 6 8 9 10 12 10 12 11 10 13 11 12 11 7 4 6 7 9 7 9 8 5 5 7 8 6 5 3 1 2 3 2 6 10 9 9 8 7 6 5 3 2 1 1 2 3 3 4 5 7 9
10 10 10 11 11 11 12 11 11 11 12 11 11 11 13 12 12 13 12 12 12 12 13 13 12 12 12 11 11 10 8 9 7 7 8 9 10 10 11 9 10 11 11 11 13 12 9 7 5 6 5 7 4 4 4 5 7 6 4 4 3 3 3 3 3 3 5 10 10 8 7 7 6 5 4 3 2 2 2 2 3 5 6 7 9
10 9 9 9 10 11 12 12 12 12 12 12 12 12 12 11 12 12 12 12 12 12 11 12 12 12 12 12 11 10 9 9 8 8 7 8 8 7 8 8 9 10 8 9 10 8 5 8 5 2 4 3 2 4 7 8 6 4 4 4 4 4 4 3 2 3 6 11 10 8 6 6 5 6 5 4 3 2 1 2 3 4 5 7 8
9 10 10 10 10 11 11 12 12 12 11 11 12 12 12 11 11 11 11 11 11 12 11 11 11 10 10 11 11 9 9 10 10 8 8 11 8 9 9 8 9 9 9 9 9 8 7 5 9 6 4 6 4 3 6 5 7 6 4 3 3 4 5 5 4 3 2 1 3 3 4 4 5 6 6 4 3 2 1 2 3 3 5 6 8
10 10 9 10 10 11 11 11 11 11 11 11 11 11 11 11 11 11 11 11 10 10 10 9 9 9 10 10 9 8 9 10 9 9 9 9 9 11 11 10 10 9 8 9 10 11 8 6 4 3 5 5 5 5 4 4 4 4 7 6 4 5 4 5 4 3 3 3 6 7 6 6 7 5 5 4 3 2 1 2 3 3 5 7 8
10 10 10 10 9 9 10 10 11 10 11 11 11 11 11 11 11 11 11 10 10 8 8 9 9 9 9 9 8 8 9 10 9 9 10 10 9 9 8 7 6 8 9 9 8 7 6 6 5 5 4 5 5 4 6 7 7 3 6 5 9 8 7 6 5 4 4 5 5 5 6 6 6 6 6 4 3 1 1 2 3 3 5 7 8
9 9 8 9 9 10 10 10 10 10 11 11 10 10 10 10 10 10 10 10 10 9 8 8 8 7 7 7 7 8 11 14 16 13 13 12 10 10 8 8 8 8 7 7 5 6 6 6 5 4 6 6 6 7 8 9 12 15 9 7 6 4 4 3 4 5 5 5 5 5 5 4 3 3 3 3 3 3 2 3 3 4 5 7 8
7 7 7 7 8 10 10 10 10 10 10 10 12 16 14 11 10 9 9 10 9 8 8 7 6 6 7 7 8 13 14 14 13 13 13 13 13 10 8 10 9 7 6 6 6 6 6 7 7 9 7 7 9 11 10 12 11 5 8 8 7 4 3 3 2 4 4 5 5 6 4 3 3 2 3 3 3 3 3 3 2 3 5 7 8
8 8 8 8 9 9 9 10 10 10 10 9 14 15 16 17 12 10 10 9 8 7 8 8 8 7 7 7 6 8 9 8 9 12 12 13 12 10 5 10 11 13 9 8 8 8 9 9 8 8 10 12 10 10 9 7 8 10 7 9 7 6 6 6 5 2 5 6 5 2 3 3 4 3 3 3 3 4 4 3 4 6 6 6 7
8 6 8 9 8 8 8 9 10 10 9 11 15 15 16 17 16 10 8 8 8 8 7 8 7 7 7 6 5 5 5 7 6 7 8 9 9 8 6 9 10 11 13 14 12 8 8 9 9 11 11 11 9 9 6 8 9 7 6 6 8 8 7 7 5 4 3 7 5 3 2 2 2 2 2 3 3 4 4 4 5 6 5 6 6
5 8 9 8 8 7 8 10 10 9 8 12 15 16 17 17 17 13 7 8 7 7 7 8 8 7 6 6 6 5 5 7 4 4 5 4 6 8 7 9 10 12 11 9 9 12 12 9 9 9 11 10 9 9 12 11 8 8 6 6 6 7 6 6 7 2 3 6 4 3 3 2 3 3 3 2 2 3 3 6 6 5 5 4 5
9 9 7 9 8 8 9 9 9 8 9 11 15 16 16 16 15 13 7 7 7 7 8 8 7 7 8 8 8 7 5 5 5 6 6 6 6 6 6 6 6 8 8 8 7 5 7 9 10 10 11 10 11 12 12 9 11 11 10 10 9 7 9 6 2 3 4 5 4 2 1 3 2 2 3 2 2 2 2 4 6 5 5 3 4
9 10 9 9 9 8 9 8 8 9 9 12 14 15 15 14 14 12 7 6 6 6 6 7 8 8 8 8 8 9 8 7 7 8 8 7 7 5 4 4 5 5 5 6 6 6 6 7 8 8 7 9 8 6 9 9 12 7 5 6 9 6 5 6 4 4 3 2 2 2 3 2 2 2 2 2 2 2 1 4 7 6 5 2 3
6 5 6 7 8 8 8 7 8 9 8 12 13 14 14 13 13 9 6 7 6 6 6 6 6 5 5 6 7 7 9 9 10 12 9 8 7 7 7 4 3 3 4 2 1 3 4 4 4 4 3 6 5 7 10 9 6 5 8 8 9 8 7 3 3 1 2 2 3 2 1 1 2 2 0 1 1 1 1 2 3 4 5 3 2
7 8 9 7 6 7 8 8 8 8 7 10 12 12 13 13 10 6 6 5 6 6 6 6 6 6 7 7 7 7 8 9 12 15 15 14 9 10 8 7 5 3 2 0 1 2 3 4 5 6 7 9 10 11 14 15 10 9 8 7 6 6 8 5 2 3 4 3 3 4 1 1 2 1 0 0 1 0 1 1 0 2 6 3 2
10 10 7 5 6 7 8 9 9 8 7 8 12 12 13 14 11 8 7 6 5 6 5 4 5 6 7 10 8 8 9 9 15 17 19 15 11 11 10 9 8 6 5 2 2 2 5 5 5 7 8 9 11 13 16 17 16 12 11 11 10 7 8 7 8 4 1 2 4 6 2 1 2 1 0 0 1 0 0 1 2 2 3 0 3
8 5 6 7 6 6 7 7 8 10 7 7 11 12 13 14 11 7 7 6 6 6 6 5 5 5 6 7 11 10 8 10 18 18 19 15 11 12 11 10 9 9 8 7 7 6 4 4 3 4 4 5 6 7 10 17 16 13 10 4 8 8 8 6 4 4 1 4 6 9 5 2 3 1 1 1 1 1 1 1 1 2 1 0 0
Wind_Direction
197 202 196 206 204 205 205 211 211 216 210 220 222 228 233 232 212 218 214 264 294 284 313 262 209 291 309 63 219 136 159 178 153 61 1 49 30 39 25 15 3 348 345 351 343 127 135 114 106 111 112 108 103 100 99 96 94 93 92 90 88 87 85 81 76 73 69 66 63 59 55 51 47 42 37 35 32 30 28 24 23 20 18 15 15
205 204 199 211 210 209 210 211 209 207 207 219 217 222 231 202 218 215 214 232 265 288 336 316 319 344 301 102 174 240 178 173 167 167 162 60 8 73 37 20 360 344 339 333 12 141 126 110 109 111 117 113 110 109 105 102 100 98 94 92 91 88 85 81 80 76 71 67 62 59 55 50 47 41 35 34 33 29 25 24 21 19 17 13 14
205 205 208 212 213 212 216 209 211 210 207 224 204 219 219 223 201 204 210 214 254 347 320 312 311 330 312 114 132 179 168 165 203 160 168 172 171 98 59 32 2 339 329 317 128 151 141 123 117 116 119 116 114 112 110 106 104 102 100 96 91 90 87 84 80 77 73 67 62 58 56 48 45 41 36 33 32 26 24 20 20 17 15 10 13
205 208 210 212 217 218 221 211 214 200 208 216 215 215 214 213 201 190 187 242 297 303 266 266 280 321 304 111 141 158 149 194 191 215 166 181 161 192 99 50 7 8 10 312 151 157 147 123 123 131 135 133 126 123 118 114 108 104 102 99 95 91 89 85 80 77 73 69 62 59 55 49 44 39 37 31 30 27 22 18 19 15 13 10 12
207 211 210 216 219 221 224 222 215 197 207 215 216 210 196 207 207 141 162 205 268 263 172 224 255 251 273 145 160 163 171 178 204 210 174 141 119 317 72 74 55 33 34 47 124 187 131 126 147 152 141 138 139 134 128 122 115 108 102 97 96 95 93 87 81 77 74 69 64 59 54 50 43 39 37 30 27 27 19 17 16 14 12 8 11
204 211 213 219 222 223 226 221 216 204 199 202 213 207 198 198 209 171 196 211 227 232 217 239 228 215 238 207 187 201 185 191 195 216 166 154 141 149 125 92 65 58 38 49 57 74 122 144 159 139 137 134 139 141 131 125 117 113 106 102 97 96 91 88 85 81 75 70 65 59 53 48 41 39 35 30 24 25 18 16 13 13 11 6 6
209 209 212 215 221 226 225 227 209 198 208 211 213 209 197 210 182 200 198 212 222 226 220 237 250 254 247 205 224 199 196 195 181 185 187 148 140 129 153 117 87 84 69 72 59 59 76 120 125 122 127 137 136 142 140 130 126 120 114 105 100 95 90 87 86 84 77 71 65 59 53 47 40 38 34 28 23 22 19 12 11 11 9 8 6
210 211 215 215 221 226 222 214 208 193 201 211 208 212 201 204 197 196 211 229 218 242 197 235 234 254 251 250 248 204 195 187 184 189 191 157 157 158 164 133 124 88 108 87 82 69 70 72 89 106 128 138 150 149 147 142 135 129 123 112 104 98 93 91 90 86 80 73 66 60 52 48 39 38 32 27 20 19 16 9 11 8 8 7 4
211 209 215 218 221 226 215 214 197 197 198 210 211 214 186 190 195 197 211 233 203 243 237 219 238 247 261 248 227 202 195 188 185 183 164 188 170 160 155 143 126 130 115 108 102 101 70 72 66 60 46 128 161 163 159 155 149 136 125 121 114 108 105 101 96 90 84 77 69 60 52 46 40 37 31 25 17 16 14 7 8 6 6 5 4
210 209 212 215 211 214 215 209 195 195 201 211 213 211 211 190 208 194 197 208 219 220 237 219 223 252 248 229 211 209 200 192 188 166 181 175 159 168 160 157 150 135 124 119 118 96 98 73 68 64 49 23 161 166 167 162 155 147 137 131 129 125 115 105 98 94 89 81 73 62 51 45 40 33 29 23 15 14 10 8 5 4 2 4 3
210 207 211 216 220 222 221 206 192 200 206 217 222 214 207 205 213 199 193 211 222 216 225 218 219 221 228 211 205 201 194 182 187 201 172 171 167 161 145 178 173 136 129 130 119 116 97 90 82 88 66 37 37 144 156 149 159 154 149 147 144 132 117 107 100 96 93 88 76 67 52 44 40 32 23 20 12 9 8 6 6 0 360 3 1
208 209 212 215 219 220 221 212 200 203 213 219 220 213 211 208 217 217 213 217 226 224 192 195 178 192 261 166 122 190 185 171 192 193 174 175 168 157 166 145 171 150 125 123 116 111 108 107 108 113 113 62 35 28 41 57 174 163 164 159 145 131 121 113 109 102 96 89 81 70 54 44 39 31 23 15 10 7 4 5 4 2 357 359 360
209 208 212 213 219 221 218 218 210 211 217 219 202 206 200 197 207 206 215 221 229 211 213 166 192 239 131 197 163 82 168 178 181 195 192 175 158 168 151 152 138 278 120 118 119 120 134 136 139 134 107 105 61 32 20 6 319 170 166 156 146 137 130 124 120 113 104 95 89 76 58 42 39 31 22 12 8 6 2 3 1 359 359 357 356
206 210 211 212 213 214 215 218 209 213 219 222 207 204 195 209 204 215 214 220 229 175 191 144 198 229 232 235 214 149 112 180 183 184 181 172 168 161 155 156 147 151 167 134 129 141 151 155 141 120 107 110 112 144 165 348 340 80 160 156 153 147 142 136 127 122 115 110 102 90 67 45 36 26 17 10 4 4 3 1 1 359 357 356 356
206 204 210 211 212 208 214 207 210 209 210 214 214 215 211 210 204 215 209 215 234 187 185 193 217 160 143 348 255 251 218 200 201 202 188 172 152 160 158 150 151 155 170 165 158 160 162 156 136 128 134 143 158 163 160 114 9 353 53 152 169 161 152 144 136 132 132 129 123 102 78 56 35 19 11 4 360 3 2 3 359 356 354 355 354
205 207 207 206 205 203 202 206 212 204 210 215 213 216 212 210 206 211 209 215 215 225 197 197 180 145 221 211 218 187 285 242 212 175 183 175 175 176 164 168 157 158 185 190 181 169 159 147 147 153 157 161 159 159 159 162 179 357 14 2 213 163 160 151 148 146 148 146 139 122 88 54 31 18 6 1 358 359 359 1 2 358 355 354 355
206 207 205 208 201 203 201 206 207 208 209 216 217 214 206 205 205 204 205 216 224 212 205 202 205 206 182 125 145 238 229 247 172 204 166 188 208 182 180 173 172 174 185 193 185 183 158 163 167 168 169 159 161 168 172 174 174 173 175 178 352 162 163 161 159 158 157 156 151 140 107 62 32 17 4 357 358 357 357 358 359 356 356 354 352
207 207 211 208 209 207 208 206 209 210 208 214 213 214 208 201 206 204 210 213 223 203 214 213 215 213 222 221 212 238 185 179 168 257 133 233 194 194 191 189 174 172 185 181 191 191 189 178 179 178 171 167 168 175 174 169 178 186 185 173 173 170 168 173 171 168 166 165 159 149 135 102 39 21 4 356 355 355 356 358 355 353 354 352 350
208 209 207 211 210 208 207 209 208 210 205 212 216 212 208 204 198 208 210 206 211 225 219 214 198 236 233 239 256 259 156 153 220 95 259 190 218 190 202 192 183 184 192 199 196 191 194 190 185 175 170 175 179 172 171 177 187 200 204 191 177 177 181 184 183 179 171 166 165 171 166 130 76 29 3 358 354 352 356 355 354 355 353 350 347
207 206 208 206 208 209 207 209 211 209 207 212 215 208 212 213 200 208 210 206 205 216 224 206 189 220 212 224 229 195 255 241 229 210 232 218 202 237 344 193 205 214 211 206 201 201 188 193 184 171 172 189 178 173 179 178 184 197 197 192 184 187 187 185 184 187 182 179 182 184 179 158 68 31 13 1 353 351 353 352 351 353 354 349 345
210 209 207 210 207 209 206 210 210 210 207 214 212 210 210 209 206 207 209 211 209 214 222 214 208 219 184 218 220 227 224 228 239 206 231 238 242 178 188 92 216 229 221 213 210 204 199 193 182 177 186 179 180 183 181 178 181 188 210 199 191 191 191 187 184 184 185 193 192 193 185 135 69 40 16 1 352 347 348 351 354 354 351 347 344
213 211 211 209 209 208 211 211 211 209 210 215 212 212 213 213 210 205 210 212 210 212 217 219 210 217 205 187 203 217 227 235 223 212 251 236 244 201 183 183 191 225 198 209 203 198 198 189 188 196 193 181 183 183 179 178 179 184 207 214 197 198 197 191 187 186 190 195 194 191 172 145 68 47 21 1 349 349 349 350 352 353 349 344 340
207 212 212 209 210 207 210 210 211 213 215 216 213 209 211 213 214 212 212 211 210 211 219 227 223 221 219 207 205 202 204 212 204 205 216 219 227 235 191 198 211 215 211 203 186 194 192 187 190 195 195 193 188 178 172 178 182 194 195 212 205 202 199 194 191 191 195 200 196 182 172 141 100 61 33 3 357 351 346 349 348 349 347 341 339
210 214 215 210 210 209 211 213 212 212 214 211 213 213 214 214 215 213 216 215 215 211 217 222 222 222 222 214 218 211 216 215 199 200 205 220 219 231 219 198 254 249 29 139 168 201 202 201 205 197 196 192 186 172 179 180 192 191 190 201 204 202 200 197 195 196 198 201 200 192 171 161 156 95 41 19 0 346 338 340 343 343 344 341 338
215 215 217 207 205 208 208 211 215 213 215 211 218 215 214 215 214 215 218 216 210 212 216 220 217 219 220 219 223 224 228 219 214 214 217 225 223 241 238 157 207 217 160 160 197 199 211 215 202 207 202 195 157 183 191 193 189 190 191 194 200 201 202 202 202 200 200 201 202 192 169 181 149 103 57 29 359 339 330 333 335 343 343 341 336
211 214 212 201 207 211 208 210 213 213 214 216 215 212 211 214 214 217 219 218 214 216 222 223 221 224 220 222 221 228 229 214 218 222 218 208 221 223 221 222 238 253 62 204 156 168 224 211 206 203 192 185 186 191 196 192 189 193 194 187 192 197 197 202 203 201 202 201 198 191 181 179 175 120 90 27 348 331 326 332 337 341 344 340 337
214 218 206 199 207 208 210 213 213 214 212 214 214 212 210 213 218 221 222 221 214 215 222 223 224 224 222 224 224 226 231 223 213 225 216 211 213 215 202 212 236 154 194 203 275 233 225 188 197 200 189 186 193 195 190 188 193 191 190 190 187 188 192 199 202 203 204 200 195 197 184 186 181 161 149 154 329 321 325 331 337 341 341 338 337
217 213 199 196 202 206 207 214 214 213 213 212 211 210 209 211 218 219 223 211 215 216 222 220 226 226 223 224 225 229 226 223 220 224 221 221 222 223 209 214 220 238 178 216 213 243 203 208 195 203 186 192 194 193 190 190 195 191 187 189 187 187 194 196 200 204 201 196 192 193 200 195 186 181 170 180 288 320 329 335 337 337 337 337 335
220 202 200 197 201 202 204 212 211 210 212 212 211 211 208 211 217 220 223 216 211 221 223 221 224 223 225 222 223 228 228 222 223 224 223 221 223 221 209 210 210 230 192 212 217 225 218 201 198 204 190 184 190 190 187 196 188 182 181 186 189 187 190 194 199 200 193 194 197 198 204 198 193 190 180 198 288 322 325 330 331 333 336 337 335
215 203 193 196 202 199 205 207 208 205 211 209 209 211 208 213 218 221 221 215 216 221 224 225 224 221 221 220 220 227 225 221 224 223 222 222 220 218 212 212 212 225 204 201 235 201 221 188 210 174 186 195 185 184 189 188 175 183 179 186 188 187 185 194 197 193 186 194 199 201 207 203 199 190 186 188 270 320 327 328 329 337 339 338 336
204 198 196 201 199 200 203 207 204 207 207 211 209 210 208 215 218 222 220 217 216 221 222 218 222 219 220 222 220 225 221 223 224 226 226 219 212 206 211 203 203 212 222 203 243 231 201 198 210 181 180 193 178 168 173 181 179 185 179 183 186 180 182 190 193 186 190 199 197 203 211 209 201 193 184 196 287 320 324 327 333 339 340 337 336
208 203 201 203 199 200 202 205 206 207 208 211 207 208 207 214 216 217 219 213 217 221 222 215 218 218 220 223 223 225 224 223 223 222 219 213 213 214 214 208 207 209 214 213 224 240 186 204 190 182 177 171 160 174 178 162 180 181 177 176 172 175 183 173 184 188 198 201 194 203 212 208 206 198 199 209 298 327 331 330 340 340 336 336 337
206 203 206 206 202 202 202 204 208 206 206 209 206 205 206 213 216 216 216 213 217 222 220 221 217 217 218 221 222 222 220 219 219 218 215 215 215 215 205 197 208 205 200 209 220 238 210 300 185 176 170 144 171 179 161 172 174 173 158 169 168 175 162 171 171 197 201 199 190 207 211 205 202 196 199 219 314 342 326 330 337 338 332 332 334
206 208 210 208 204 202 203 206 209 209 207 209 207 203 208 212 214 214 217 215 218 221 218 222 219 216 218 221 225 225 219 221 222 218 215 212 199 199 197 200 208 206 204 202 222 227 226 116 193 107 153 179 155 176 178 173 174 153 163 156 159 143 164 160 178 186 209 198 199 212 212 207 199 193 190 150 270 323 315 327 332 328 324 328 333
210 209 211 206 204 202 205 208 208 209 209 211 208 205 211 212 214 216 216 216 217 218 219 220 218 217 219 221 224 222 220 220 225 221 194 195 194 196 207 203 208 208 198 205 210 225 224 204 151 159 174 184 196 175 180 154 123 148 151 160 157 147 134 165 185 186 218 204 208 213 210 207 203 194 178 188 234 270 299 322 324 318 321 331 339
211 211 209 207 204 202 206 209 210 209 211 212 210 210 212 212 216 217 217 218 217 218 218 218 218 218 219 220 225 224 214 212 205 194 198 199 198 206 210 201 203 205 202 206 215 221 216 175 182 178 166 160 176 122 98 116 142 154 153 112 110 144 154 185 199 195 219 212 208 209 209 207 205 198 193 204 219 252 287 313 319 320 327 339 341
212 206 210 206 205 205 208 209 210 211 212 211 212 214 214 213 216 218 218 219 219 219 218 218 218 216 215 216 217 213 199 206 209 207 198 200 204 202 208 203 203 209 206 202 212 211 168 185 127 113 120 136 63 117 148 144 133 114 106 136 155 164 181 191 190 217 229 222 205 206 211 209 211 210 206 210 219 243 275 321 325 323 334 339 334
210 209 206 206 206 208 210 211 211 211 210 210 213 215 215 215 217 218 220 221 220 220 218 219 217 212 213 215 220 208 197 206 212 207 196 204 198 202 210 207 205 204 203 203 199 197 194 175 142 124 161 158 150 134 165 131 132 131 122 124 148 181 184 190 204 203 202 160 158 199 215 224 225 221 217 213 223 239 268 320 316 326 338 333 327
212 211 208 208 209 209 211 212 212 210 212 212 215 216 217 217 217 218 221 221 221 220 219 215 213 213 215 217 217 202 200 207 208 202 201 205 199 209 205 206 205 197 196 199 199 199 189 147 122 128 133 158 142 130 134 109 90 127 157 164 198 192 206 198 192 187 183 208 223 223 222 223 224 223 227 215 215 216 274 305 312 329 330 318 321
216 215 210 210 210 209 213 212 213 211 213 214 215 216 215 215 216 220 220 219 218 216 214 212 213 214 212 211 208 197 202 206 206 206 194 201 199 209 207 201 185 183 198 193 179 174 166 153 145 155 148 139 134 85 117 131 144 202 206 184 190 188 199 202 204 171 181 195 205 207 215 220 222 229 229 217 217 211 266 273 278 306 303 308 321
217 217 212 208 208 210 214 215 215 212 214 215 213 211 215 216 218 219 217 217 215 213 210 213 215 212 211 206 200 199 202 208 208 202 199 195 186 202 203 188 184 185 176 172 165 162 157 154 123 117 141 156 164 141 154 180 195 198 170 182 204 182 172 177 205 193 181 187 202 209 213 201 207 212 208 218 206 201 222 249 260 273 286 310 322
215 211 211 208 210 211 210 214 216 214 216 217 212 209 208 210 212 218 219 216 210 208 207 210 215 210 207 203 210 207 207 210 207 204 204 202 204 204 182 185 178 175 170 161 164 171 165 171 173 162 169 183 180 187 182 200 186 114 150 182 191 155 143 196 229 204 182 191 195 213 211 173 200 211 209 223 189 202 215 220 220 238 280 302 320
212 210 206 210 214 213 212 211 213 217 218 216 210 208 210 212 212 215 215 215 207 203 202 201 209 209 215 213 212 211 212 211 209 206 205 205 210 220 194 190 182 173 165 170 178 172 176 187 182 180 190 196 197 187 198 163 176 182 170 176 177 148 177 166 205 168 193 180 198 208 215 165 185 210 208 223 197 204 209 216 225 247 264 293 320
214 204 211 215 214 212 214 217 217 215 218 214 209 212 213 216 215 213 208 209 204 202 198 198 205 205 207 205 209 200 202 202 194 200 208 210 211 207 187 184 194 197 184 173 171 179 188 188 189 198 192 203 190 184 172 164 188 184 183 172 182 178 179 201 208 203 153 167 173 190 208 143 205 220 236 226 204 208 209 217 235 246 261 286 322
195 206 217 211 218 215 213 217 221 217 220 213 213 215 216 215 214 209 209 204 199 204 197 198 198 198 193 189 190 194 202 187 179 172 173 182 186 182 180 185 197 198 200 213 198 185 180 191 193 194 199 192 186 189 193 193 159 169 159 178 189 198 196 200 210 108 168 181 166 189 201 158 187 203 231 231 205 195 213 226 244 255 249 272 323
205 213 213 214 214 213 213 215 219 219 218 217 216 216 216 213 210 203 207 199 200 198 198 193 192 190 185 185 185 194 185 173 173 166 161 160 156 154 160 177 195 210 214 209 202 204 191 193 190 203 205 192 200 196 191 159 159 182 177 198 190 188 190 189 69 102 121 175 187 158 209 170 203 201 229 223 175 200 210 223 249 258 247 253 334
200 205 202 207 212 209 212 212 215 220 221 216 216 213 211 208 205 201 199 198 196 199 196 192 189 189 188 191 191 185 173 176 182 172 162 157 148 151 160 180 207 200 202 203 201 189 185 207 214 217 198 198 202 131 149 175 186 185 182 192 182 170 105 76 84 69 133 190 251 226 226 121 201 214 217 191 163 194 196 250 268 265 232 223 329
207 197 209 200 203 205 209 209 213 224 223 214 214 212 204 202 196 194 190 191 195 193 192 187 186 182 181 182 186 178 170 176 173 163 154 140 137 148 163 169 178 185 202 292 209 183 192 195 200 193 183 179 155 154 164 167 148 117 109 92 82 106 130 142 177 145 203 207 209 227 216 180 172 223 183 130 143 214 232 239 269 263 195 184 318
206 209 210 203 202 202 204 208 210 220 222 213 207 208 199 193 183 185 181 187 192 194 193 181 171 165 171 182 185 186 171 176 167 163 157 146 149 156 163 169 172 170 190 344 122 119 128 145 152 156 151 155 155 154 162 162 155 134 120 120 155 153 143 167 194 184 212 171 207 221 232 219 162 187 275 103 85 59 240 226 260 204 171 190 313
214 214 201 208 211 209 207 213 208 210 219 210 202 206 199 188 179 177 179 179 188 184 169 161 164 170 179 185 192 191 185 179 169 169 164 155 157 161 161 163 169 176 184 168 115 81 108 123 138 151 156 160 162 160 164 161 153 155 156 180 172 156 175 187 195 191 148 203 209 183 193 212 112 134 275 114 102 101 242 214 162 170 138 178 333
221 200 198 208 215 216 217 214 204 210 213 209 200 204 200 192 182 177 175 177 178 186 169 172 181 172 177 190 199 205 197 172 172 174 167 163 160 163 165 162 174 194 192 158 153 148 134 113 89 103 107 146 155 155 165 164 165 178 191 157 142 171 173 189 147 115 206 232 189 179 187 149 138 134 160 168 195 147 243 290 203 159 179 133 27